Regional Weather Roundup
Issued by NWS

Home | Current Version | Previous Version | Text Only | Print | Product List | Glossary Off
Versions: 1 2 3 4 5 6 7 8 9 10 11 12 13 14 15 16 17 18 19 20 21 22 23 24 25 26 27 28 29 30 31 32 33 34 35 36 37 38 39 40 41 42 43 44 45 46 47 48 49 50

861
ASUS45 KCYS 251110
RWRWY

WYOMING REGIONAL WEATHER ROUNDUP
NATIONAL WEATHER SERVICE CHEYENNE WY
500 AM MDT SUN SEP 25 2016

NOTE:  "FAIR" INDICATES FEW OR NO CLOUDS BELOW 12,000 FEET
WITH NO SIGNIFICANT WEATHER AND/OR OBSTRUCTIONS TO VISIBILITY.

WYZ001-251200-
YELLOWSTONE NATIONAL PARK

CITY           SKY/WX    TMP DP  RH WIND       PRES   REMARKS
LK YELLOWSTONE   N/A     26  25  96 CALM      30.49S
W YELLOWSTONE  NOT AVBL

$$
WYZ002>013-054>058-071-098>099-251200-
NORTHERN WYOMING

CITY           SKY/WX    TMP DP  RH WIND       PRES   REMARKS
JACKSON        FAIR      30  30 100 N5        30.46S WCI  25
CODY           FAIR      37  36  93 S6        30.40S WCI  33
GREYBULL       FOG       41  41 100 CALM      30.37R VSB 1/4
WORLAND        FAIR      41  39  93 SW5       30.37R
SHERIDAN       CLOUDY    49  39  68 NW7       30.34R
BUFFALO        CLOUDY    46  36  68 N9        30.35R
GILLETTE       CLOUDY    45  44  97 W8        30.34R
HULETT         FAIR      45  39  81 W7        30.32R
NEWCASTLE      FAIR      45  37  76 NW20G28   30.30R

$$
WYZ014>020-022>026-101>103-251200-
CENTRAL WYOMING

CITY           SKY/WX    TMP DP  RH WIND       PRES   REMARKS
BIG PINEY      FAIR      32  29  88 W5        30.47R WCI  27
PINEDALE       FAIR      28  28 100 NW5       30.48R WCI  23
DUBOIS         FAIR      36  28  75 NW17      30.42S WCI  25
LANDER         FAIR      39  35  86 VRB5      30.39R
RIVERTON       FAIR      38  38 100 E3        30.39S
CASPER         FAIR      37  34  89 W7        30.39R WCI  32
DOUGLAS        CLOUDY    46  38  73 NW14      30.37S

$$
WYZ021-027>030-104>119-251200-
SOUTHERN WYOMING

CITY           SKY/WX    TMP DP  RH WIND       PRES   REMARKS
EVANSTON       FAIR      38  28  67 S6        30.48R WCI  33
FORT BRIDGER   SUNNY     37  32  81 W5        30.50R WCI  34
ROCK SPRINGS   FAIR      35  33  92 SW8       30.46R WCI  29
DIXON          FAIR      36  35  96 CALM      30.49R
RAWLINS        FAIR      35  32  88 N3        30.45R
SARATOGA       FAIR      32  32 100 E9        30.46R WCI  24
LARAMIE        FAIR      34  28  79 CALM      30.43R
CHEYENNE       FAIR      41  31  67 NW7       30.40R
TORRINGTON     MOCLDY    44  38  79 NW7       30.33R
PINE BLUFFS    FAIR      41  34  75 W8        30.38R

$$




USA.gov is the U.S. government's official web portal to all federal, state and local government web resources and services.